Regional Weather Roundup
Issued by NWS

Home | Current Version | Previous Version | Text Only | Print | Product List | Glossary Off
Versions: 1 2 3 4 5 6 7 8 9 10 11 12 13 14 15 16 17 18 19 20 21 22 23 24 25 26 27 28 29 30 31 32 33 34 35 36 37 38 39 40 41 42 43 44 45 46 47 48 49 50

000
ASUS44 KMEG 202100
RWRTN
TENNESSEE HOURLY STATE WEATHER ROUNDUP
NATIONAL WEATHER SERVICE MEMPHIS TN
400 PM CDT MON OCT 20 2014

TNZ002-004-019-021-049-052-054-088>092-202200-
WEST TENNESSEE

CITY           SKY/WX    TMP DP  RH WIND       PRES   REMARKS
MEMPHIS INTL   MOSUNNY   73  52  47 W7        30.02F
NWS MEMPHIS      N/A     70 N/A N/A MISG        N/A
JACKSON        MOSUNNY   70  50  49 SW10      30.00F
DYERSBURG      MOSUNNY   72  46  40 SW12      30.01S
UNION CITY     MOSUNNY   70  52  52 W8        29.97S
PARIS          MOSUNNY   68  52  56 SW10      29.98F
LEXINGTON      SUNNY     68  50  52 SW8       30.00S
SAVANNAH       PTSUNNY   68  48  49 SW7       30.02S
$$

TNZ008-025-027-028-033-062-065-066-202200-
NORTH MIDDLE TENNESSEE

CITY           SKY/WX    TMP DP  RH WIND       PRES   REMARKS
NASHVILLE      PTSUNNY   67  49  52 SW5       30.00S
CLARKSVILLE    SUNNY     68  51  54 SW12      29.96F
COOKEVILLE     PTSUNNY   64  52  63 NW3       30.00R
CROSSVILLE     PTSUNNY   62  47  57 W8        30.00F
$$

TNZ061-075-076-078-094-096-097-202200-
SOUTH MIDDLE TENNESSEE

CITY           SKY/WX    TMP DP  RH WIND       PRES   REMARKS
WINCHESTER     MOSUNNY   64  50  59 CALM      30.01F
MCMINNVILLE    MOSUNNY   66  50  55 SW8       30.00S
SHELBYVILLE    SUNNY     70  52  52 W7        30.01F
$$

TNZ017-018-042-046-047-202200-
NORTHEAST TENNESSEE

CITY           SKY/WX    TMP DP  RH WIND       PRES   REMARKS
TRI CITIES     CLOUDY    63  48  58 SW9       29.99F
ELIZABETHTON   CLEAR     61  46  59 W5        30.00F
$$

TNZ012-013-036-069-073-074-202200-
CENTRAL EAST TENNESSEE

CITY           SKY/WX    TMP DP  RH WIND       PRES   REMARKS
KNOXVILLE      CLOUDY    64  51  62 W8        29.98F
OAK RIDGE      CLOUDY    66  49  54 VRB5      29.99F
GATLINBURG     PTCLDY    66  48  52 W5        29.98F
MORRISTOWN     PTCLDY    63  52  67 W6        29.99F
$$

TNZ083-085-099-202200-
SOUTHEAST TENNESSEE

CITY           SKY/WX    TMP DP  RH WIND       PRES   REMARKS
CHATTANOOGA    LGT RAIN  68  51  54 W7        29.99F
$$

SKY/WX REPORTED AS FAIR MEANS FEW OR NO CLOUDS BELOW
12 THOUSAND FEET.



USA.gov is the U.S. government's official web portal to all federal, state and local government web resources and services.